Starlink 4339

operational
NORAD ID: 53054 Int'l Des: 2022-077 Owner: SPXS Country: US Constellation: starlink
LEOCIRCULARRETROGRADESSO

关于 Starlink 4339

正在加载描述...

实时位置

正在加载3D地球...

即将过境

高度历史

Altitude vs Time

uPlot chart will show altitude changes over time

两行轨道根数

1 53054U 22077M 25304.50903902 .00000319 00000-0 26288-4 0 9990
2 53054 97.6029 123.9308 0001282 80.9421 279.1951 15.05645964181543
Epoch: Oct 31, 2025 • Age: 10 hours

当前状态

高度 560.8 km
速度 7.58 km/s
星下点 -28.51°S, 80.91°W
发射日期 Jul 11, 2022
运行时间 3.3 years
类型 internet

技术详情

分类 Payload
质量 297.00 kg
干质量 275.00 kg
总质量 297.00 kg
长度 0.20 m
直径 2.80 m
跨度 9.00 m
形状 Box + pan
制造商 SPXS
平台类型 Starlink
阶段状态 In Orbit
所有者/国家 SPXS/US

大型星座

Loading constellations...